Weather reports worldwide

Advertisment
Perpignan, France (7747): temperature & dewpoint: 06.11.2019 18:00:00 - 12.11.2019 18:00:00 (CET)Perpignan, France (7747): temperature 5cm: 06.11.2019 18:00:00 - 12.11.2019 18:00:00 (CET)Perpignan, France (7747): temperature -20cm & temperature -100cm: 06.11.2019 18:00:00 - 12.11.2019 18:00:00 (CET)Perpignan, France (7747): wind speed & gusts: 06.11.2019 18:00:00 - 12.11.2019 18:00:00 (CET)Perpignan, France (7747): wind direction: 06.11.2019 18:00:00 - 12.11.2019 18:00:00 (CET)Perpignan, France (7747): reduced air pressure: 06.11.2019 18:00:00 - 12.11.2019 18:00:00 (CET)Perpignan, France (7747): visibility: 06.11.2019 18:00:00 - 12.11.2019 18:00:00 (CET)Perpignan, France (7747): precipitation: 06.11.2019 18:00:00 - 12.11.2019 18:00:00 (CET)
Date & Time tt [°C] td [°C] tt 5cm [°C] tt -20cm [°C] tt -100cm [°C] ff [km/h] ff [kn] fx [km/h] fx [kn] dd ppp [hPa] vv [km] rr [mm]
12.11.2019 18:00:00 - - - - - - - - - - - - -
12.11.2019 17:00:00 13,6 4,7 12,9 13,7 17,3 29 16 55 30 WNW 1007,0 54 0,0
12.11.2019 16:00:00 14,2 5,5 13,7 13,6 17,3 21 11 51 28 NW 1007,6 60 0,0
12.11.2019 15:00:00 15,2 4,5 15,4 13,5 17,3 34 18 64 34 NW 1007,1 60 0,0
12.11.2019 14:00:00 15,3 4,3 16,1 13,4 17,3 39 21 65 35 WNW 1007,8 60 0,0
12.11.2019 13:00:00 14,6 4,0 15,7 13,2 17,3 29 16 56 30 NW 1009,0 57 0,0
12.11.2019 12:00:00 14,1 3,8 15,4 13,2 17,3 27 15 70 38 NW 1010,2 24 0,0
12.11.2019 11:00:00 13,4 4,0 16,2 13,1 17,3 33 18 66 36 NW 1010,8 22 0,0
12.11.2019 10:00:00 12,4 4,1 13,1 13,2 17,4 35 19 60 33 NW 1011,6 21 0,0
12.11.2019 09:00:00 11,3 4,3 8,4 13,2 17,4 27 14 50 27 WNW 1011,7 38 0,0
12.11.2019 08:00:00 9,8 4,8 8,0 13,2 17,4 20 11 46 25 WNW 1011,6 60 0,0
12.11.2019 07:00:00 10,5 3,5 8,5 13,3 17,4 19 10 38 20 WNW 1011,6 60 0,0
12.11.2019 06:00:00 10,6 3,1 9,2 13,3 17,4 25 13 51 27 NW 1012,0 60 0,0
12.11.2019 05:00:00 10,7 3,2 9,8 13,3 17,4 28 15 53 29 NW 1012,5 60 0,0
12.11.2019 04:00:00 10,8 3,6 10,3 13,4 17,4 22 12 50 27 NW 1012,7 58 0,0
12.11.2019 03:00:00 10,8 2,9 10,0 13,4 17,5 24 13 53 29 NNW 1013,3 57 0,0
12.11.2019 02:00:00 10,9 3,2 9,4 13,5 17,5 25 14 51 28 NW 1013,6 54 0,0
12.11.2019 01:00:00 10,6 4,1 8,4 13,6 17,5 23 12 73 39 NW 1014,1 53 0,0
12.11.2019 00:00:00 10,3 2,1 9,4 13,6 17,5 31 17 84 45 WNW 1013,6 55 0,0
11.11.2019 23:00:00 11,2 0,0 10,3 13,7 17,5 55 30 100 54 WNW 1012,0 60 0,0
11.11.2019 22:00:00 11,5 0,6 10,5 13,7 17,5 50 27 90 49 WNW 1011,5 60 0,0
11.11.2019 21:00:00 11,7 0,1 10,6 13,8 17,5 39 21 84 45 WNW 1011,8 60 0,0
11.11.2019 20:00:00 11,6 3,9 11,1 13,8 17,5 42 23 66 36 WNW 1012,1 60 0,0
11.11.2019 19:00:00 12,8 5,0 12,0 13,8 17,6 12 6 53 28 NNW 1011,1 60 0,0
11.11.2019 18:00:00 14,2 3,0 13,2 13,7 17,6 28 15 42 23 NW 1010,4 60 0,0
11.11.2019 17:00:00 14,4 2,6 13,5 13,6 17,6 24 13 49 26 WNW 1009,7 60 0,0
11.11.2019 16:00:00 14,5 3,3 14,1 13,4 17,6 14 7 34 18 N 1009,4 60 0,0
11.11.2019 15:00:00 15,8 2,9 17,2 13,3 17,6 20 11 43 23 NNW 1009,5 60 0,0
11.11.2019 14:00:00 16,1 3,2 19,5 13,1 17,6 19 10 39 21 NW 1010,0 60 0,0
11.11.2019 13:00:00 15,1 3,2 16,9 13,0 17,7 15 8 44 24 NW 1010,7 60 0,0
11.11.2019 12:00:00 13,2 2,4 15,3 12,9 17,7 23 12 42 23 NW 1011,9 47 0,0
11.11.2019 11:00:00 12,4 2,3 13,0 12,8 17,7 21 11 41 22 NW 1013,2 48 0,0
11.11.2019 10:00:00 11,0 1,8 10,3 12,9 17,7 16 8 47 26 WNW 1013,5 60 0,0
11.11.2019 09:00:00 10,2 1,8 8,9 12,9 17,7 24 13 52 28 NW 1013,4 60 0,0
11.11.2019 08:00:00 9,5 1,9 8,1 13,0 17,7 34 18 52 28 NW 1012,9 60 0,0
11.11.2019 07:00:00 9,0 1,9 7,8 13,0 17,7 22 12 43 23 NW 1013,8 60 0,0
11.11.2019 06:00:00 8,9 2,2 7,6 13,1 17,7 23 13 52 28 NW 1014,2 60 0,0
11.11.2019 05:00:00 8,8 2,1 7,8 13,2 17,8 27 15 44 24 NW 1013,7 60 0,0
11.11.2019 04:00:00 8,7 2,5 7,5 13,2 17,7 26 14 55 30 NW 1014,0 60 0,0
11.11.2019 03:00:00 8,8 2,4 7,4 13,3 17,8 34 18 51 28 WNW 1014,8 60 0,0
11.11.2019 02:00:00 8,7 2,3 7,3 13,4 17,8 21 11 43 23 NW 1014,6 60 0,0
11.11.2019 01:00:00 8,7 2,7 7,0 13,5 17,8 23 12 50 27 NW 1014,4 60 0,0
11.11.2019 00:00:00 8,4 3,0 6,6 13,6 17,8 16 9 54 29 WNW 1014,0 60 0,0
10.11.2019 23:00:00 9,1 3,5 7,9 13,7 17,8 29 16 56 30 WNW 1014,5 60 0,0
10.11.2019 22:00:00 9,4 3,8 7,8 13,8 17,8 30 16 55 30 WNW 1014,3 60 0,0
10.11.2019 21:00:00 8,9 3,5 7,9 13,9 17,8 32 18 65 35 WNW 1013,8 60 0,0
10.11.2019 20:00:00 9,4 3,6 8,6 13,9 17,9 39 21 67 36 WNW 1013,7 60 0,0
10.11.2019 19:00:00 9,6 3,3 8,5 14,0 17,8 32 17 56 30 WNW 1013,3 60 0,0
10.11.2019 18:00:00 10,0 2,6 8,5 14,0 17,9 17 9 45 24 NW 1012,3 60 0,0
10.11.2019 17:00:00 11,0 3,0 10,4 13,9 17,9 23 12 61 33 NW 1011,3 56 0,0
10.11.2019 16:00:00 12,2 2,3 12,6 13,9 17,9 30 16 54 29 NNW 1010,4 55 0,0
10.11.2019 15:00:00 12,3 2,4 12,9 13,8 17,9 32 17 64 35 NW 1009,8 57 0,0
10.11.2019 14:00:00 12,9 2,7 15,8 13,7 17,9 29 15 52 28 NW 1009,8 60 0,0
10.11.2019 13:00:00 12,3 2,7 13,6 13,6 17,9 31 17 57 31 NW 1010,3 60 0,0
10.11.2019 12:00:00 12,3 3,2 14,2 13,6 17,9 19 10 59 32 NW 1010,8 50 0,0
10.11.2019 11:00:00 11,3 2,8 11,9 13,6 18,0 33 18 57 31 NW 1010,8 54 0,0
10.11.2019 10:00:00 10,4 3,0 10,0 13,6 18,0 19 10 49 26 NW 1011,4 57 0,0
10.11.2019 09:00:00 9,9 2,7 9,1 13,7 18,0 34 18 64 35 WNW 1010,7 47 0,0
10.11.2019 08:00:00 9,8 2,9 8,8 13,7 18,0 32 17 51 28 NW 1010,7 60 0,0
10.11.2019 07:00:00 9,8 3,1 9,0 13,8 18,0 26 14 52 28 NW 1010,3 60 0,0
10.11.2019 06:00:00 10,0 3,5 9,3 13,9 18,0 29 16 53 28 NW 1010,0 60 0,0
10.11.2019 05:00:00 10,5 3,5 8,9 13,9 18,0 26 14 53 28 NW 1010,0 60 0,0
10.11.2019 04:00:00 10,6 3,8 9,1 14,0 18,1 22 12 39 21 NW 1010,3 60 0,0
10.11.2019 03:00:00 10,2 4,8 9,0 14,0 18,1 15 8 42 23 WNW 1010,4 60 0,0
10.11.2019 02:00:00 10,5 5,0 9,1 14,1 18,1 18 10 48 26 NW 1010,5 60 0,0
10.11.2019 01:00:00 10,6 5,8 8,7 14,1 18,1 27 14 50 27 WNW 1010,3 60 0,0
10.11.2019 00:00:00 10,7 7,2 8,5 14,1 18,1 29 16 45 24 W 1010,4 59 0,0
09.11.2019 23:00:00 9,7 8,1 8,7 14,1 18,1 2 1 11 6 WSW 1010,2 53 0,2
09.11.2019 22:00:00 10,1 7,9 8,8 14,1 18,1 10 5 23 13 W 1010,6 37 0,2
09.11.2019 21:00:00 10,1 7,2 8,6 14,2 18,2 8 4 11 6 WNW 1011,2 39 0,0
09.11.2019 20:00:00 10,4 6,5 7,9 14,2 18,2 3 1 6 3 N 1011,1 60 0,0
09.11.2019 19:00:00 10,6 6,0 6,2 14,2 18,2 5 3 10 5 E 1011,4 47 0,0
09.11.2019 18:00:00 11,6 5,2 6,4 14,1 18,2 5 3 13 7 ENE 1011,6 60 0,0
09.11.2019 17:00:00 13,3 5,4 12,0 14,1 18,2 7 4 34 18 W 1011,7 60 0,0
09.11.2019 16:00:00 14,0 4,6 14,1 13,9 18,2 21 12 41 22 NW 1011,7 60 0,0
09.11.2019 15:00:00 14,8 4,5 16,0 13,8 18,2 26 14 45 25 NW 1012,4 42 0,0
09.11.2019 14:00:00 14,8 4,8 18,0 13,6 18,3 29 16 51 28 WNW 1013,1 45 0,0
09.11.2019 13:00:00 13,9 4,5 17,3 13,5 18,3 31 17 60 32 WNW 1013,7 35 0,0
09.11.2019 12:00:00 13,5 4,4 17,4 13,5 18,3 35 19 56 31 WNW 1014,1 39 0,0
09.11.2019 11:00:00 12,3 3,2 15,5 13,5 18,3 34 18 60 32 NW 1014,9 46 0,0
09.11.2019 10:00:00 10,9 3,4 12,4 13,5 18,3 39 21 66 36 WNW 1015,0 59 0,0
09.11.2019 09:00:00 10,5 2,8 10,8 13,6 18,3 39 21 62 33 NW 1015,4 60 0,0
09.11.2019 08:00:00 9,5 2,1 7,5 13,7 18,4 13 7 71 39 WNW 1015,5 60 0,0
09.11.2019 07:00:00 9,6 1,2 8,4 13,7 18,3 30 16 63 34 WNW 1013,8 60 0,0
09.11.2019 06:00:00 10,0 1,4 7,8 13,8 18,4 28 15 58 32 WNW 1013,3 60 0,0
09.11.2019 05:00:00 9,7 1,6 7,9 13,9 18,4 21 11 54 29 NW 1012,7 60 0,0
09.11.2019 04:00:00 9,6 2,0 7,8 14,0 18,4 29 15 50 27 WNW 1012,7 60 0,0
09.11.2019 03:00:00 9,4 2,5 7,1 14,1 18,4 8 4 58 31 WNW 1012,4 60 0,0
09.11.2019 02:00:00 9,1 3,5 7,9 14,2 18,4 27 15 53 28 WNW 1011,7 60 0,0
09.11.2019 01:00:00 9,6 2,9 7,8 14,3 18,4 35 19 59 32 WNW 1011,3 60 0,0
09.11.2019 00:00:00 9,5 3,2 7,0 14,4 18,4 21 11 41 22 WNW 1011,2 60 0,0
08.11.2019 23:00:00 9,7 3,2 8,0 14,5 18,5 29 16 58 31 WNW 1011,1 60 0,0
08.11.2019 22:00:00 10,0 3,0 7,6 14,6 18,5 29 16 71 38 WNW 1010,8 60 0,0
08.11.2019 21:00:00 9,7 4,7 7,0 14,7 18,5 24 13 65 35 WNW 1009,7 59 0,0
08.11.2019 20:00:00 11,0 3,0 9,0 14,8 18,5 21 12 44 24 WNW 1008,4 60 0,0
08.11.2019 19:00:00 10,9 3,4 7,4 14,8 18,6 21 11 41 22 WNW 1007,8 60 0,0
08.11.2019 18:00:00 9,6 4,2 7,5 14,8 18,5 19 10 39 21 W 1007,0 60 0,0
08.11.2019 17:00:00 10,0 5,0 7,8 14,8 18,6 26 14 67 36 WNW 1007,3 60 0,2
08.11.2019 16:00:00 13,4 6,0 12,4 14,6 18,6 7 4 15 8 S 1005,8 60 0,0
08.11.2019 15:00:00 14,2 4,5 14,8 14,5 18,6 11 6 22 12 S 1005,2 60 0,0
08.11.2019 14:00:00 15,1 4,2 16,6 14,3 18,6 16 9 36 19 WSW 1005,2 44 0,0
08.11.2019 13:00:00 14,8 5,6 18,1 14,2 18,6 7 4 21 11 ESE 1005,6 44 0,0
08.11.2019 12:00:00 12,5 5,6 12,8 14,1 18,6 11 6 22 12 S 1006,4 54 0,0
08.11.2019 11:00:00 10,6 5,4 10,2 14,1 18,7 8 5 20 11 SSW 1006,9 60 0,0
08.11.2019 10:00:00 10,2 4,8 12,8 14,2 18,7 5 3 16 8 WSW 1006,9 60 0,0
08.11.2019 09:00:00 7,5 4,3 3,5 14,2 18,7 3 2 9 5 WSW 1006,7 56 0,0
08.11.2019 08:00:00 4,3 2,8 1,8 14,3 18,7 4 2 14 8 WNW 1006,3 60 0,0
08.11.2019 07:00:00 5,1 3,4 3,1 14,4 18,7 12 6 18 10 WSW 1005,8 60 0,0
08.11.2019 06:00:00 5,9 4,2 4,4 14,4 18,7 12 6 19 10 WSW 1005,9 60 0,0
08.11.2019 05:00:00 6,9 4,7 5,7 14,5 18,7 11 6 20 11 SW 1005,8 60 0,0
08.11.2019 04:00:00 7,7 4,5 4,8 14,6 18,7 13 7 21 11 WSW 1005,8 60 0,0
08.11.2019 03:00:00 6,8 4,1 3,4 14,7 18,8 12 7 20 11 WSW 1006,0 60 0,0
08.11.2019 02:00:00 5,9 3,7 3,4 14,8 18,7 6 3 21 11 S 1006,4 60 0,0
08.11.2019 01:00:00 7,1 3,9 2,7 15,0 18,8 13 7 21 11 WNW 1006,4 60 0,0
08.11.2019 00:00:00 7,3 3,7 3,1 15,1 18,8 10 5 28 15 WSW 1007,1 60 0,0
07.11.2019 23:00:00 6,6 3,9 3,3 15,2 18,8 11 6 19 10 W 1007,4 60 0,0
07.11.2019 22:00:00 7,5 4,4 3,4 15,2 18,8 11 6 22 12 W 1007,9 60 0,0
07.11.2019 21:00:00 8,2 5,1 6,1 15,3 18,8 9 5 20 11 SSW 1008,1 60 0,0
07.11.2019 20:00:00 9,0 5,4 7,5 15,3 18,8 9 5 18 10 WNW 1008,3 60 0,0
07.11.2019 19:00:00 9,1 5,3 8,0 15,4 18,8 8 5 26 14 NW 1008,7 60 0,2
07.11.2019 18:00:00 9,7 5,3 8,0 15,4 18,9 17 9 36 19 NW 1008,5 36 0,2
07.11.2019 17:00:00 10,1 6,1 9,1 15,4 18,9 13 7 24 13 WNW 1008,1 60 0,0
07.11.2019 16:00:00 10,2 6,5 9,9 15,4 18,9 16 9 28 15 WNW 1008,0 60 0,2
07.11.2019 15:00:00 10,1 7,9 10,1 15,3 18,9 10 6 29 15 WNW 1008,1 15 0,4
07.11.2019 14:00:00 11,5 8,0 11,2 15,2 18,9 11 6 39 21 NW 1008,2 60 0,0
07.11.2019 13:00:00 13,6 6,0 13,1 15,1 18,9 13 7 32 17 WNW 1007,6 60 0,0
07.11.2019 12:00:00 14,7 6,0 15,9 15,1 18,9 24 13 37 20 NW 1007,3 50 0,0
07.11.2019 11:00:00 14,7 6,5 15,4 15,0 18,9 17 9 32 18 NW 1007,7 40 0,0
07.11.2019 10:00:00 14,1 6,7 13,5 15,0 18,9 16 8 30 16 WNW 1007,4 48 0,0
07.11.2019 09:00:00 13,4 7,8 10,2 15,0 19,0 19 10 36 20 NW 1007,2 49 0,0
07.11.2019 08:00:00 11,6 6,5 7,0 15,0 18,9 6 4 24 13 W 1007,4 60 0,0
07.11.2019 07:00:00 10,3 7,2 7,0 15,1 19,0 13 7 21 12 WNW 1006,8 60 0,0
07.11.2019 06:00:00 9,1 7,2 7,4 15,2 19,0 8 4 14 7 WSW 1006,3 60 0,0
07.11.2019 05:00:00 9,2 7,3 5,5 15,3 19,0 12 6 16 9 WNW 1006,3 60 0,0
07.11.2019 04:00:00 6,8 5,9 3,3 15,4 19,0 9 5 15 8 W 1006,3 60 0,0
07.11.2019 03:00:00 6,5 5,1 3,8 15,5 19,0 5 3 12 6 WNW 1006,9 60 0,0
07.11.2019 02:00:00 6,1 4,6 3,5 15,6 19,0 11 6 12 7 W 1007,6 60 0,0
07.11.2019 01:00:00 6,7 5,0 3,5 15,7 19,0 9 5 12 7 WSW 1008,8 60 0,0
07.11.2019 00:00:00 7,4 5,4 4,2 15,8 19,1 8 4 11 6 SW 1009,5 60 0,0
06.11.2019 23:00:00 8,7 5,3 4,9 15,9 19,1 4 2 15 8 S 1010,1 60 0,0
06.11.2019 22:00:00 9,9 5,5 6,8 16,0 19,1 10 5 25 14 W 1010,7 60 0,0
06.11.2019 21:00:00 13,2 6,1 7,3 16,1 19,1 13 7 29 15 WSW 1011,0 60 0,0
06.11.2019 20:00:00 11,7 5,8 7,0 16,2 19,1 6 3 18 10 NW 1010,9 60 0,0
06.11.2019 19:00:00 12,5 6,1 8,0 16,2 19,1 7 4 28 15 SW 1010,9 60 0,0
06.11.2019 18:00:00 13,9 5,5 10,3 16,2 19,1 17 9 44 24 WNW 1010,3 60 0,0

tt = temperature
td = dewpoint
tt 5cm = temperature 5cm
tt -20cm = temperature -20cm
tt -100cm = temperature -100cm
ff = wind speed
fx = gusts
dd = wind direction
ppp = reduced air pressure
vv = visibility
rr = precipitation

Next stations